sat.trackr.live / text

‹ back to catalog

STARLINK-32143

NORAD 60296 · 2024-132U

PAYLOAD ACTIVE UNKNOWN

§ Identity

Operator
Country
US
Launch date
2024-07-28
Launch site
AFETR
Launch vehicle
Mass (kg)
RCS (m²)

Purposes: comms

External: N2YO · Heavens-Above · Gunter

§ Orbital elements

Epoch: 2026-05-25T04:33:00.387648Z

Period
94.01 min
Inclination
53.1613°
Eccentricity
0.0000820
Mean motion
15.31702917 rev/d
Perigee alt
470.2 km
Apogee alt
471.3 km
Semi-major
6,848.9 km
B*
4.1512e-5
RAAN
57.0427°
Arg perigee
122.0989°
Mean anomaly
238.0092°
Rev number
10,327

§ Raw data

STARLINK-321431 60296U 24132U   26145.18958782  .00000924  00000+0  41512-4 0  99922 60296  53.1613  57.0427 0000820 122.0989 238.0092 15.31702917103273

JSON: /api/v1/satellites/60296 · /tle

For live sub-satellite position, see the globe view (requires WebGL).

§ Visibility from observer

Set your observer location to see the next 7 days of passes ≥ 10°. The values pass through the URL so the page stays shareable.

No JS? Fill the form by hand. The geolocation button needs JavaScript.